FW8937 Weather Reports


time (UTC)temp
C
wind
direction
speed
KPH
gust
KPH
rain 1hr
cm
rain 24hr
cm
rain mn
cm
humidity
%
barometer
mb
20210801202359 15 84 4.8 12.9 0.00 1.47 0.00 73 1035.0
20210801201904 15 67 6.4 14.5 0.00 1.47 0.00 73 1035.2
20210801201344 15 51 6.4 14.5 0.00 1.47 0.00 74 1035.1
20210801200845 15 78 6.4 14.5 0.00 1.47 0.00 76 1035.1
20210801200330 15 41 6.4 12.9 0.00 1.47 0.00 77 1035.1
20210801195830 15 57 4.8 12.9 0.00 1.47 0.00 74 1035.1
20210801195319 15 71 4.8 16.1 0.00 1.47 0.00 76 1035.4
20210801194814 15 92 8.0 20.9 0.00 1.47 0.00 78 1035.4
20210801194311 15 72 6.4 20.9 0.00 1.47 0.00 76 1035.5
20210801193800 15 80 6.4 14.5 0.00 1.47 0.00 71 1035.5
20210801193259 16 61 6.4 14.5 0.00 1.47 0.00 76 1035.5
20210801192747 16 76 6.4 17.7 0.00 1.47 0.00 75 1035.5
20210801192245 15 71 6.4 19.3 0.00 1.47 0.00 76 1035.6
20210801191744 15 92 6.4 19.3 0.00 1.47 0.00 70 1035.6
20210801191245 15 87 8.0 16.1 0.00 1.47 0.00 74 1035.9
20210801190746 15 98 8.0 16.1 0.00 1.47 0.00 77 1035.8
20210801190245 15 94 8.0 16.1 0.00 1.47 0.00 72 1036.0
20210801185747 16 117 8.0 17.7 0.00 1.47 0.00 73 1036.0
20210801185246 17 105 8.0 19.3 0.00 1.47 0.00 75 1036.0
20210801184745 16 105 9.7 19.3 0.00 1.47 0.00 75 1036.0
20210801184250 16 86 9.7 19.3 0.00 1.47 0.00 77 1036.2
20210801183746 16 103 8.0 19.3 0.00 1.47 0.00 78 1036.3
20210801183247 15 128 6.4 16.1 0.00 1.47 0.00 75 1036.3
20210801182742 15 107 6.4 17.7 0.00 1.47 0.00 76 1036.3
20210801182243 15 114 6.4 17.7 0.00 1.47 0.00 78 1036.3
20210801181742 15 145 4.8 16.1 0.00 1.47 0.00 75 1036.3
20210801181247 15 131 6.4 12.9 0.00 1.47 0.00 74 1036.4
20210801180743 15 109 6.4 12.9 0.00 1.47 0.00 71 1036.4
20210801180239 15 133 4.8 11.3 0.00 1.47 0.00 74 1036.4
20210801175740 15 101 6.4 14.5 0.00 1.47 0.00 69 1036.3
20210801175241 15 88 6.4 16.1 0.00 1.47 0.00 76 1036.3
20210801174740 15 118 6.4 16.1 0.00 1.47 0.00 74 1036.3
20210801174241 15 114 6.4 14.5 0.00 1.47 0.00 74 1036.3
20210801173740 15 153 8.0 17.7 0.00 1.47 0.00 74 1036.4
20210801173240 15 97 8.0 17.7 0.00 1.47 0.00 78 1036.4
20210801172739 15 78 9.7 19.3 0.00 1.47 0.00 77 1036.4
20210801172243 14 95 9.7 19.3 0.00 1.47 0.00 79 1036.4
20210801171740 15 126 8.0 14.5 0.00 1.47 0.00 75 1036.4
20210801171240 15 90 6.4 14.5 0.00 1.47 0.00 78 1036.5
20210801170741 15 143 6.4 16.1 0.00 1.47 0.00 77 1036.7
20210801170240 15 117 4.8 16.1 0.00 1.47 0.00 73 1036.7
20210801165738 15 67 4.8 16.1 0.00 1.47 0.00 71 1036.7
20210801165239 15 61 6.4 16.1 0.00 1.47 0.00 73 1036.7
20210801164738 14 82 6.4 16.1 0.00 1.47 0.00 73 1036.5
20210801164240 15 110 6.4 14.5 0.00 1.47 0.00 71 1036.5
20210801163739 15 151 6.4 14.5 0.00 1.47 0.00 69 1036.5
20210801163234 15 125 6.4 16.1 0.00 1.47 0.00 72 1036.7
20210801162726 15 109 6.4 16.1 0.00 1.47 0.00 74 1036.4
20210801162221 15 93 8.0 16.1 0.00 1.47 0.00 67 1036.5
20210801161715 15 176 8.0 16.1 0.00 1.47 0.00 64 1036.5
20210801161209 16 173 8.0 19.3 0.00 1.47 0.00 67 1036.4
20210801160702 15 110 9.7 19.3 0.00 1.47 0.00 67 1036.5
20210801160157 15 107 8.0 17.7 0.00 1.47 0.00 72 1036.5
20210801155650 15 112 8.0 16.1 0.00 1.47 0.00 75 1036.5
20210801155144 14 172 6.4 12.9 0.00 1.47 0.00 77 1036.4
20210801154639 13 139 4.8 12.9 0.00 1.47 0.00 71 1036.4
20210801154133 14 79 4.8 12.9 0.00 1.47 0.00 86 1036.3
20210801153627 13 93 3.2 11.3 0.00 1.47 0.00 83 1036.4
20210801153121 13 123 1.6 8.0 0.00 1.47 0.00 82 1036.4
20210801152614 12 144 1.6 6.4 0.00 1.47 0.00 84 1036.4
20210801152109 11 184 1.6 4.8 0.00 1.47 0.00 88 1036.4
20210801151603 11 105 1.6 4.8 0.00 1.47 0.00 85 1036.3
20210801151104 11 101 0.0 3.2 0.00 1.47 0.00 87 1036.3
20210801150603 11 101 1.6 6.4 0.00 1.47 0.00 85 1036.3
20210801150100 11 101 3.2 6.4 0.00 1.47 0.00 83 1036.3
20210801145602 12 67 1.6 4.8 0.00 1.47 0.00 78 1036.3
20210801145100 12 67 1.6 4.8 0.00 1.47 0.00 83 1036.3
20210801144601 12 67 1.6 4.8 0.00 1.47 0.00 81 1036.3
20210801144100 11 67 1.6 4.8 0.00 1.47 0.00 82 1036.3
20210801143601 11 67 0.0 4.8 0.00 1.47 0.00 87 1036.2
20210801143101 11 330 1.6 3.2 0.00 1.47 0.00 81 1036.2
20210801142601 11 330 1.6 4.8 0.00 1.47 0.00 82 1036.2
20210801142101 11 330 1.6 4.8 0.00 1.47 0.00 92 1036.3
20210801141558 11 330 1.6 3.2 0.00 1.47 0.00 94 1036.2
20210801141058 10 330 1.6 4.8 0.00 1.47 0.00 93 1036.3
20210801140558 10 330 1.6 4.8 0.00 1.47 0.00 94 1036.3
20210801140056 10 330 1.6 4.8 0.00 1.47 0.00 94 1036.3
20210801135559 10 330 3.2 4.8 0.00 1.47 0.00 94 1036.3
20210801135057 10 330 3.2 4.8 0.00 1.47 0.00 94 1036.3
20210801134550 10 330 1.6 3.2 0.00 1.47 0.00 94 1036.3
20210801134046 10 330 3.2 4.8 0.00 1.47 0.00 93 1036.3
20210801133539 10 330 3.2 4.8 0.00 1.47 0.00 92 1036.2
20210801133032 10 330 3.2 4.8 0.00 1.47 0.00 93 1036.2
20210801132527 10 330 3.2 4.8 0.00 1.47 0.00 94 1036.2
20210801132020 10 330 4.8 6.4 0.00 1.47 0.00 94 1036.2
20210801131516 10 330 4.8 6.4 0.00 1.47 0.00 94 1035.9
20210801131009 10 330 3.2 6.4 0.00 1.47 0.00 93 1035.9
20210801130503 10 331 1.6 4.8 0.00 1.47 0.00 95 1035.8
20210801125957 10 331 1.6 3.2 0.00 1.47 0.00 95 1035.8
20210801125451 10 331 1.6 4.8 0.00 1.47 0.00 95 1035.8
20210801124945 10 331 3.2 4.8 0.00 1.47 0.00 96 1035.8
20210801124440 10 331 1.6 3.2 0.00 1.47 0.00 95 1035.6
20210801123932 10 331 1.6 3.2 0.00 1.47 0.00 95 1035.8
20210801123427 10 331 1.6 3.2 0.00 1.47 0.00 95 1035.8
20210801122921 10 331 1.6 3.2 0.00 1.47 0.00 95 1035.6
20210801122414 10 331 1.6 4.8 0.00 1.47 0.00 95 1035.6
20210801121908 9 331 1.6 4.8 0.00 1.47 0.00 95 1035.5
20210801121403 9 331 1.6 3.2 0.00 1.47 0.00 95 1035.6
20210801120857 9 331 3.2 3.2 0.00 1.47 0.00 95 1035.5
20210801120351 9 331 3.2 4.8 0.00 1.47 0.00 95 1035.5
20210801115845 9 331 3.2 4.8 0.00 1.47 0.00 95 1035.4
20210801115339 9 331 1.6 4.8 0.00 1.47 0.00 95 1035.4
20210801114839 9 331 1.6 3.2 0.00 1.47 0.00 95 1035.5
20210801114338 9 331 1.6 3.2 0.00 1.47 0.00 94 1035.5
20210801113837 9 331 1.6 3.2 0.00 1.47 0.00 94 1035.5
20210801113338 9 331 1.6 4.8 0.00 1.47 0.00 94 1035.4
20210801112838 9 331 3.2 4.8 0.00 1.47 0.00 94 1035.2
20210801112338 9 331 3.2 4.8 0.00 1.47 0.00 94 1035.4
20210801111838 9 331 3.2 4.8 0.00 1.47 0.00 93 1035.4
20210801111340 9 331 3.2 4.8 0.00 1.47 0.00 94 1035.4
20210801110839 9 330 1.6 4.8 0.00 1.47 0.00 93 1035.4
20210801110334 9 330 1.6 4.8 0.00 1.47 0.00 93 1035.5
20210801105835 9 330 3.2 6.4 0.00 1.47 0.00 92 1035.4
20210801105333 9 329 4.8 6.4 0.00 1.47 0.00 93 1035.2
20210801104836 9 329 4.8 8.0 0.00 1.47 0.00 93 1035.2
20210801104336 9 331 6.4 8.0 0.00 1.47 0.00 93 1035.2
20210801103835 9 320 6.4 8.0 0.00 1.47 0.00 93 1035.1
20210801103334 9 321 4.8 8.0 0.00 1.47 0.00 93 1035.1
20210801102833 9 327 4.8 6.4 0.00 1.47 0.00 93 1035.1
20210801102335 9 326 4.8 6.4 0.00 1.47 0.00 92 1035.1
20210801101829 9 321 4.8 8.0 0.00 1.47 0.00 92 1035.1
20210801101321 10 313 6.4 8.0 0.00 1.47 0.00 93 1035.1
20210801100816 9 300 6.4 8.0 0.00 1.47 0.00 94 1035.1
20210801100310 9 297 6.4 11.3 0.00 1.47 0.00 94 1035.1
20210801095805 10 304 8.0 11.3 0.00 1.47 0.00 94 1035.2
20210801095257 10 297 8.0 11.3 0.00 1.47 0.00 94 1035.1
20210801094752 10 288 6.4 11.3 0.00 1.47 0.00 94 1035.1
20210801094245 10 298 6.4 11.3 0.00 1.47 0.00 94 1035.1
20210801093740 10 300 6.4 12.9 0.00 1.47 0.00 94 1035.1
20210801093235 10 301 6.4 12.9 0.00 1.47 0.00 95 1035.1
20210801092729 10 301 8.0 11.3 0.00 1.47 0.00 95 1035.1
20210801092222 10 291 6.4 11.3 0.00 1.47 0.00 95 1035.1
20210801091717 10 295 6.4 11.3 0.00 1.47 0.00 95 1035.1
20210801091213 10 311 6.4 8.0 0.00 1.47 0.00 95 1035.1
20210801090704 10 310 6.4 11.3 0.00 1.47 0.00 94 1035.0
20210801090157 10 308 6.4 11.3 0.00 1.47 0.00 95 1035.1
20210801085650 10 329 6.4 8.0 0.00 1.47 0.00 95 1035.1
20210801085145 10 313 8.0 11.3 0.00 1.47 0.00 95 1035.1
20210801084638 10 303 8.0 11.3 0.00 1.47 0.00 95 1035.1
20210801084132 10 314 6.4 8.0 0.00 1.47 0.00 95 1035.1
20210801083626 10 302 6.4 11.3 0.00 1.47 0.00 95 1035.1
20210801083124 10 294 6.4 11.3 0.00 1.47 0.00 95 1035.1
20210801082614 10 301 6.4 8.0 0.00 1.47 0.00 95 1035.1
20210801082108 10 302 6.4 8.0 0.00 1.47 0.00 95 1035.2
20210801081602 10 302 6.4 8.0 0.00 1.47 0.00 95 1035.4
20210801081056 10 300 6.4 11.3 0.00 1.47 0.00 95 1035.4
20210801080550 10 294 6.4 11.3 0.00 1.47 0.00 95 1035.5
20210801080044 10 302 6.4 11.3 0.00 1.47 0.00 95 1035.5
20210801075538 10 300 6.4 11.3 0.00 1.47 0.00 95 1035.5
20210801075032 10 295 6.4 9.7 0.00 1.47 0.00 95 1035.5
20210801074525 10 284 6.4 9.7 0.00 1.47 0.00 95 1035.8
20210801074019 10 304 4.8 8.0 0.00 1.47 0.00 95 1035.8
20210801073514 10 301 6.4 11.3 0.00 1.50 0.00 95 1035.6
20210801073008 10 301 6.4 11.3 0.00 1.52 0.00 95 1035.8
20210801072502 10 294 4.8 8.0 0.00 1.52 0.00 95 1035.8
20210801072008 10 291 4.8 11.3 0.00 1.55 0.00 95 1035.9
20210801071450 10 284 4.8 11.3 0.00 1.57 0.00 95 1035.9
20210801070944 10 292 4.8 8.0 0.00 1.57 0.00 95 1036.0
20210801070439 10 286 4.8 9.7 0.00 1.57 0.00 95 1036.0
20210801065932 10 286 6.4 9.7 0.00 1.57 0.00 95 1036.0
20210801065426 10 307 6.4 8.0 0.00 1.57 0.00 95 1036.2
20210801064919 10 304 4.8 8.0 0.00 1.60 0.00 95 1036.2
20210801064415 10 298 4.8 8.0 0.00 1.60 0.00 95 1036.2
20210801063908 10 297 4.8 8.0 0.00 1.60 0.00 95 1036.3
20210801063403 10 306 4.8 8.0 0.00 1.60 0.00 95 1036.3
20210801062857 10 307 4.8 8.0 0.00 1.60 0.00 96 1036.3
20210801062350 10 304 4.8 6.4 0.00 1.60 0.00 96 1036.3
20210801061844 10 296 4.8 6.4 0.00 1.60 0.00 96 1036.3
20210801061339 10 296 4.8 6.4 0.00 1.60 0.00 96 1036.3
20210801060832 10 300 4.8 6.4 0.00 1.60 0.00 96 1036.3
20210801060326 10 301 3.2 6.4 0.00 1.60 0.00 96 1036.2
20210801055821 10 301 4.8 6.4 0.00 1.60 1.60 96 1036.2
20210801055317 10 292 3.2 6.4 0.00 1.60 1.60 96 1036.3
20210801054810 10 243 3.2 4.8 0.00 1.60 1.60 95 1036.2
20210801054304 10 182 3.2 4.8 0.00 1.60 1.60 96 1036.3
20210801053758 10 182 1.6 4.8 0.00 1.60 1.60 96 1036.2
20210801053252 10 182 1.6 4.8 0.00 1.60 1.60 96 1036.2
20210801052746 10 180 1.6 3.2 0.00 1.60 1.60 96 1036.2
20210801052239 10 175 1.6 4.8 0.00 1.60 1.60 96 1036.2
20210801051734 10 121 1.6 4.8 0.00 1.60 1.60 96 1036.0
20210801051227 10 135 1.6 3.2 0.00 1.60 1.60 96 1036.2
20210801050722 10 135 1.6 3.2 0.00 1.60 1.60 96 1036.2
20210801050216 10 142 1.6 4.8 0.00 1.60 1.60 96 1036.2
20210801045716 10 142 0.0 4.8 0.00 1.60 1.60 96 1036.0
20210801045212 10 292 0.0 3.2 0.00 1.68 1.60 96 1036.2
20210801044712 10 292 1.6 8.0 0.00 1.75 1.60 96 1036.3
20210801044212 10 290 1.6 8.0 0.00 1.83 1.60 95 1036.3
20210801043714 10 13 0.0 4.8 0.00 1.88 1.60 96 1036.2
20210801043213 10 13 0.0 4.8 0.00 1.91 1.60 95 1036.2
20210801042712 10 355 0.0 4.8 0.00 1.93 1.60 95 1036.3
20210801042214 10 355 0.0 4.8 0.00 1.96 1.60 95 1036.3
20210801041710 10 355 1.6 4.8 0.00 1.98 1.60 95 1036.3
20210801041209 10 355 1.6 4.8 0.00 2.01 1.60 95 1036.2
20210801040709 10 355 1.6 4.8 0.00 2.01 1.60 95 1036.2
20210801040208 10 355 1.6 6.4 0.00 2.01 1.60 95 1036.2
20210801035708 10 355 3.2 11.3 0.00 2.01 1.60 95 1036.2
20210801035207 10 10 3.2 11.3 0.00 2.03 1.60 95 1036.2
20210801034709 10 294 4.8 11.3 0.00 2.03 1.60 95 1036.2
20210801034208 10 284 4.8 11.3 0.00 2.06 1.60 95 1036.0
20210801033706 10 311 4.8 8.0 0.00 2.13 1.60 95 1035.9
20210801033207 10 292 4.8 11.3 0.00 2.16 1.60 95 1035.9
20210801032706 10 292 4.8 11.3 0.00 2.16 1.60 95 1035.9
20210801032206 10 301 3.2 8.0 0.00 2.16 1.60 95 1035.9
20210801031706 10 302 4.8 8.0 0.00 2.16 1.60 95 1035.8
20210801031207 10 300 4.8 9.7 0.00 2.16 1.60 95 1035.8
20210801030707 10 290 4.8 9.7 0.00 2.16 1.60 95 1035.8
20210801030206 10 320 4.8 9.7 0.00 2.16 1.60 95 1035.6
20210801025708 10 309 4.8 11.3 0.00 2.16 1.60 95 1035.6
20210801025208 10 306 6.4 11.3 0.00 2.16 1.60 95 1035.5
20210801024708 10 312 6.4 8.0 0.00 2.16 1.60 95 1035.5
20210801024206 10 298 4.8 8.0 0.00 2.16 1.60 95 1035.4
20210801023707 10 284 4.8 8.0 0.00 2.16 1.60 96 1035.4
20210801023206 10 284 4.8 9.7 0.00 2.16 1.60 95 1035.2
20210801022706 10 281 6.4 9.7 0.00 2.16 1.60 95 1035.2
20210801022205 10 296 6.4 9.7 0.00 2.16 1.60 96 1035.2
20210801021705 10 318 6.4 9.7 0.03 2.16 1.60 96 1035.2
20210801021159 10 311 6.4 11.3 0.03 2.16 1.60 96 1035.1
20210801020652 10 275 6.4 12.9 0.03 2.16 1.60 96 1035.1
20210801020148 10 295 6.4 12.9 0.03 2.16 1.60 96 1035.1
20210801015641 10 297 6.4 11.3 0.03 2.16 1.60 96 1035.0
20210801015135 10 277 6.4 11.3 0.03 2.16 1.60 96 1035.0
20210801014629 10 295 4.8 12.9 0.03 2.16 1.60 96 1035.0
20210801014123 10 306 6.4 12.9 0.05 2.16 1.60 96 1035.0
20210801013617 11 294 6.4 12.9 0.08 2.16 1.60 96 1035.0
20210801013110 11 300 6.4 12.9 0.08 2.16 1.60 96 1035.1
20210801012605 11 306 8.0 12.9 0.08 2.16 1.60 96 1035.1
20210801012059 10 314 8.0 12.9 0.10 2.16 1.60 96 1035.1
20210801011553 10 308 6.4 12.9 0.13 2.13 1.57 96 1035.1
20210801011047 10 297 4.8 11.3 0.20 2.13 1.57 96 1035.1
20210801010541 10 300 3.2 6.4 0.28 2.13 1.57 96 1035.1
20210801010035 10 11 3.2 8.0 0.36 2.13 1.57 96 1035.2
20210801005528 10 11 3.2 8.0 0.38 2.13 1.57 96 1035.1
20210801005023 11 9 1.6 8.0 0.43 2.13 1.57 96 1035.0
20210801004517 11 22 1.6 6.4 0.48 2.13 1.57 96 1035.0
20210801004011 11 22 3.2 6.4 0.48 2.11 1.55 96 1035.0
20210801003505 11 33 3.2 8.0 0.53 2.08 1.52 96 1035.0
20210801002959 11 54 3.2 14.5 0.58 2.08 1.52 96 1035.1
20210801002453 11 55 3.2 14.5 0.64 2.06 1.52 95 1035.1
20210801001946 11 41 4.8 19.3 0.66 2.03 1.47 95 1035.0
20210801001440 11 84 4.8 19.3 0.66 1.98 1.45 96 1035.1
20210801000935 11 78 3.2 6.4 0.64 1.91 1.35 95 1035.0
20210801000429 11 355 3.2 8.0 0.61 1.83 1.30 95 1035.0
20210731235923 11 343 3.2 8.0 0.61 1.78 1.22 95 1035.1
20210731235418 11 306 3.2 6.4 0.64 1.73 1.17 95 1035.0
20210731234911 11 309 4.8 9.7 0.61 1.68 1.14 95 1035.0
20210731234404 11 306 4.8 11.3 0.64 1.65 1.09 95 1035.0
20210731233859 11 331 4.8 11.3 0.61 1.60 1.07 95 1035.0
20210731233352 11 315 4.8 8.0 0.58 1.55 0.99 95 1035.0
20210731232846 11 284 4.8 11.3 0.53 1.47 0.94 95 1035.1
20210731232341 11 309 3.2 11.3 0.48 1.40 0.86 95 1035.0
20210731231835 11 294 3.2 9.7 0.56 1.35 0.81 95 1035.1
20210731231329 11 349 3.2 9.7 0.58 1.30 0.76 95 1035.1
20210731230823 11 9 4.8 14.5 0.58 1.27 0.71 94 1035.1
20210731230318 11 301 6.4 14.5 0.51 1.19 0.66 94 1035.1
20210731225811 11 323 4.8 14.5 0.46 1.14 0.58 94 1035.1
20210731225305 12 0 1.6 11.3 0.41 1.09 0.53 94 1035.1
20210731224800 12 300 3.2 11.3 0.36 1.04 0.48 94 1035.2
20210731224253 12 298 4.8 11.3 0.30 0.99 0.43 94 1035.0
20210731223754 12 312 3.2 9.7 0.28 0.97 0.43 94 1035.1
20210731223255 12 326 3.2 8.0 0.28 0.97 0.41 94 1035.1
20210731222754 12 323 4.8 14.5 0.25 0.94 0.38 93 1035.1
20210731222253 12 328 6.4 19.3 0.20 0.89 0.33 93 1035.0
20210731221754 12 343 8.0 19.3 0.08 0.76 0.23 92 1035.1
20210731221254 13 34 8.0 17.7 0.03 0.71 0.15 91 1035.1
20210731220756 13 55 4.8 16.1 0.00 0.69 0.13 90 1035.0
20210731220255 13 84 3.2 9.7 0.00 0.69 0.13 88 1034.9
20210731215753 13 64 3.2 9.7 0.00 0.69 0.13 86 1034.7
20210731215254 13 102 4.8 9.7 0.00 0.69 0.13 87 1034.7
20210731214755 14 64 4.8 9.7 0.00 0.69 0.13 86 1034.7
20210731214253 14 59 3.2 9.7 0.00 0.69 0.13 82 1034.7
20210731213751 14 79 1.6 8.0 0.00 0.69 0.13 82 1034.7
20210731213251 14 88 3.2 6.4 0.00 0.69 0.13 85 1034.7
20210731212751 14 82 3.2 6.4 0.00 0.69 0.13 83 1034.7
20210731212245 15 82 4.8 8.0 0.00 0.69 0.13 84 1034.9
20210731211746 14 82 3.2 8.0 0.00 0.69 0.13 85 1034.9
20210731211246 15 84 3.2 6.4 0.00 0.69 0.13 86 1035.0
20210731210746 14 86 3.2 9.7 0.00 0.69 0.13 86 1035.0
20210731210246 13 87 3.2 9.7 0.00 0.69 0.13 89 1034.9
20210731205746 13 87 3.2 4.8 0.00 0.69 0.13 90 1034.9
20210731205245 13 87 3.2 6.4 0.00 0.69 0.13 90 1035.0
20210731204745 13 84 4.8 8.0 0.00 0.69 0.13 89 1035.1
20210731204248 13 73 4.8 8.0 0.00 0.69 0.13 90 1035.0
20210731203745 13 56 4.8 9.7 0.00 0.69 0.13 90 1035.0
20210731203247 13 78 3.2 9.7 0.00 0.69 0.13 90 1035.1
20210731202746 14 76 3.2 9.7 0.00 0.69 0.13 86 1035.0